Change the Weather History Date:

Tuesday, December 4, 2012

  Actual Average Record
Temperature  
Mean Temperature 61 °F 49 °F  
Max Temperature 70 °F 61 °F 78 °F (2013)
Min Temperature 51 °F 38 °F 21 °F (1989)
Degree Days  
Heating Degree Days 4 16  
Month to date heating degree days 21 62  
Since 1 July heating degree days 517 499  
Growing Degree Days 10 (Base 50)    
Moisture  
Dew Point 60 °F    
Average Humidity 89    
Maximum Humidity 100    
Minimum Humidity 78    
Precipitation  
Precipitation 1.01 in 0.19 in 2.09 in (1952)
Month to date precipitation 1.01 0.75  
Year to date precipitation 41.52 48.73  
Sea Level Pressure  
Sea Level Pressure 30.21 in    
Wind  
Wind Speed 3 mph (SSE)    
Max Wind Speed 14 mph    
Max Gust Speed 20 mph    
Visibility 6 miles    
Events Rain    
T = Trace of Precipitation, MM = Missing Value Source: NWS Daily Summary

Daily Weather History Graph

Daily Weather History Graph

Search for Another Location

Airport or City:

Trip Planner

Search our weather history database for the weather conditions in past years. The results will help you decide how hot, cold, wet, or windy it might be!

Date:

Astronomy

Dec. 04, 2012 Rise Set
Actual Time 6:38 AM CST 4:42 PM CST
Civil Twilight 6:11 AM CST 5:10 PM CST
Nautical Twilight 5:40 AM CST 5:40 PM CST
Astronomical Twilight 5:10 AM CST 6:10 PM CST
Moon 10:18 PM CST (12/4) 10:43 AM CST (12/4)
Length of Visible Light 10h 58m
Length of Day
10h 04m
Waning Gibbous, 69% of the Moon is Illuminated
Dec 4
Waning Gibbous
Dec 6
Last Quarter
Dec 13
New
Dec 19
First Quarter
Dec 28
Full

Hourly Weather History & Observations

Time (CST) Temp. Dew Point Humidity Pressure Visibility Wind Dir Wind Speed Gust Speed Precip Events Conditions
12:53 AM 53.1 °F 52.0 °F 96% 30.20 in 9.0 mi Calm Calm - N/A   Scattered Clouds
1:53 AM 53.1 °F 52.0 °F 96% 30.21 in 9.0 mi Calm Calm - N/A   Partly Cloudy
2:53 AM 53.1 °F 52.0 °F 96% 30.21 in 9.0 mi Calm Calm - N/A   Scattered Clouds
3:53 AM 51.1 °F 48.9 °F 92% 30.21 in 7.0 mi Calm Calm - N/A   Partly Cloudy
4:53 AM 53.1 °F 52.0 °F 96% 30.22 in 9.0 mi Calm Calm - N/A   Overcast
5:11 AM 53.6 °F 51.8 °F 94% 30.23 in 8.0 mi Calm Calm - N/A   Overcast
5:20 AM 53.6 °F 51.8 °F 94% 30.23 in 9.0 mi Calm Calm - N/A   Overcast
5:53 AM 54.0 °F 53.1 °F 97% 30.24 in 9.0 mi Calm Calm - 0.00 in   Overcast
6:53 AM 55.9 °F 55.0 °F 97% 30.26 in 8.0 mi Calm Calm - N/A   Overcast
7:53 AM 60.1 °F 57.0 °F 90% 30.26 in 8.0 mi SE 8.1 mph - N/A   Overcast
8:53 AM 61.0 °F 59.0 °F 93% 30.28 in 6.0 mi South 4.6 mph - 0.00 in Rain Light Rain
9:53 AM 63.0 °F 61.0 °F 93% 30.28 in 6.0 mi South 5.8 mph - 0.00 in   Overcast
10:53 AM 66.0 °F 62.1 °F 87% 30.26 in 8.0 mi South 8.1 mph - N/A   Overcast
11:37 AM 66.2 °F 62.6 °F 88% 30.24 in 8.0 mi SSW 3.5 mph - N/A   Overcast
12:06 PM 69.8 °F 62.6 °F 78% 30.23 in 10.0 mi South 8.1 mph - N/A   Overcast
12:53 PM 70.0 °F 63.0 °F 78% 30.21 in 10.0 mi South 8.1 mph - N/A   Overcast
1:51 PM 66.2 °F 64.4 °F 94% 30.21 in 2.0 mi South 9.2 mph - 0.03 in Rain Rain
1:53 PM 66.0 °F 64.0 °F 93% 30.20 in 2.0 mi South 6.9 mph - 0.04 in Rain Rain
2:43 PM 66.2 °F 64.4 °F 94% 30.20 in 3.0 mi South 5.8 mph - 0.10 in Rain Light Rain
2:53 PM 66.0 °F 64.0 °F 93% 30.19 in 4.0 mi South 5.8 mph - 0.10 in Rain Light Rain
3:37 PM 66.2 °F 64.4 °F 94% 30.19 in 6.0 mi SE 6.9 mph - 0.00 in Rain Light Rain
3:53 PM 66.0 °F 64.0 °F 93% 30.18 in 5.0 mi SE 5.8 mph - 0.00 in Rain Light Rain
4:53 PM 66.0 °F 63.0 °F 90% 30.18 in 8.0 mi Calm Calm - 0.02 in Rain Light Rain
5:53 PM 64.0 °F 63.0 °F 96% 30.21 in 4.0 mi Calm Calm - 0.00 in   Overcast
6:00 PM 62.6 °F 62.6 °F 100% 30.21 in 1.8 mi Calm Calm - N/A   Overcast
6:15 PM 62.6 °F 62.6 °F 100% 30.20 in 2.0 mi Calm Calm - N/A   Overcast
6:28 PM 62.6 °F 62.6 °F 100% 30.20 in 3.0 mi Calm Calm - N/A   Overcast
6:35 PM 62.6 °F 60.8 °F 94% 30.21 in 1.8 mi Calm Calm - 0.00 in Rain Light Rain
6:47 PM 62.6 °F 62.6 °F 100% 30.21 in 3.0 mi South 3.5 mph - 0.00 in Rain Light Rain
6:53 PM 63.0 °F 62.1 °F 97% 30.21 in 3.0 mi Calm Calm - 0.00 in Rain Light Rain
7:53 PM 63.0 °F 62.1 °F 97% 30.19 in 4.0 mi Calm Calm - 0.00 in Rain Light Rain
8:39 PM 62.6 °F 62.6 °F 100% 30.21 in 4.0 mi WNW 8.1 mph - 0.00 in   Overcast
8:49 PM 62.6 °F 62.6 °F 100% 30.21 in 6.0 mi NNW 9.2 mph - 0.00 in   Overcast
8:53 PM 63.0 °F 61.0 °F 93% 30.21 in 5.0 mi North 8.1 mph - 0.02 in Rain Rain
8:58 PM 62.6 °F 60.8 °F 94% 30.21 in 2.5 mi North 13.8 mph 19.6 mph 0.06 in Rain Heavy Rain
9:10 PM 60.8 °F 59.0 °F 94% 30.21 in 1.8 mi North 13.8 mph - 0.26 in Rain Heavy Rain
9:36 PM 60.8 °F 59.0 °F 94% 30.21 in 2.5 mi NE 11.5 mph - 0.64 in Rain Heavy Rain
9:45 PM 60.8 °F 59.0 °F 94% 30.20 in 3.0 mi NNE 11.5 mph - 0.67 in Rain Rain
9:53 PM 60.1 °F 59.0 °F 96% 30.20 in 6.0 mi NNE 8.1 mph - 0.69 in Rain Rain
10:11 PM 60.8 °F 59.0 °F 94% 30.21 in 1.8 mi Calm Calm - 0.08 in Rain Heavy Rain
10:19 PM 60.8 °F 59.0 °F 94% 30.20 in 2.0 mi ENE 4.6 mph - 0.14 in Rain Rain
10:28 PM 60.8 °F 59.0 °F 94% 30.20 in 7.0 mi Calm Calm - 0.14 in Rain Light Rain
10:53 PM 60.1 °F 59.0 °F 96% 30.18 in 10.0 mi East 6.9 mph - 0.14 in Rain Light Rain
11:44 PM 60.8 °F 59.0 °F 94% 30.18 in 10.0 mi WNW 3.5 mph - N/A   Mostly Cloudy
11:53 PM 60.1 °F 59.0 °F 96% 30.18 in 8.0 mi Calm Calm - N/A   Scattered Clouds